RH
37 44 42 41 45 46 46 47 53 46 88 97 97 97 96 97 98 97 93 94 94 88 86 83 89 95 92 88 91 94 93 95 86 74 69 62 54 58 58 66 80 93 90
41 47 49 51 49 53 53 51 50 49 47 57 67 94 97 97 97 96 96 95 95 96 97 94 92 92 90 96 96 96 96 97 95 94 84 76 71 61 54 62 60 70 91
39 49 58 59 63 65 65 64 62 57 53 48 50 52 54 78 97 97 98 97 96 96 97 97 98 96 95 94 95 96 96 94 98 94 93 79 80 81 68 60 61 63 85
43 53 58 66 68 73 75 69 63 61 59 57 55 50 52 54 63 77 86 77 91 96 97 97 98 98 98 97 95 94 95 98 97 98 92 91 75 79 77 72 63 66 70
44 56 61 62 72 76 74 69 67 68 70 69 65 67 66 65 65 66 63 64 68 74 90 97 98 98 99 98 97 97 98 98 95 97 96 92 95 87 93 93 88 86 91
58 65 66 74 75 75 74 73 71 73 74 74 75 75 77 79 77 76 75 78 78 92 94 94 98 99 99 99 98 97 97 98 98 97 96 92 93 95 93 91 84 83 83
70 74 79 78 76 76 75 72 74 77 76 76 75 77 79 83 84 85 87 88 94 96 95 95 96 98 98 99 99 99 99 98 98 98 98 95 92 93 93 91 91 96 92
79 78 79 81 80 79 80 79 77 77 76 78 79 82 84 85 92 93 96 96 96 96 94 95 94 95 96 98 98 99 99 99 99 99 99 98 95 95 92 93 97 98 95
75 79 80 82 87 85 84 82 79 78 78 78 84 90 93 91 94 93 94 96 96 86 94 95 95 95 96 97 98 98 98 99 99 99 99 99 97 97 96 96 94 94 99
78 80 81 88 88 87 89 83 80 79 79 80 88 88 92 93 94 95 95 94 91 87 90 94 94 95 95 96 97 97 97 96 98 97 99 99 98 98 98 98 98 98 99
77 78 85 88 88 91 90 88 84 80 80 80 88 90 89 85 83 89 91 84 80 80 81 82 87 90 91 94 96 96 96 96 93 94 96 95 94 97 97 97 97 98 99
73 74 85 88 90 92 91 90 88 85 83 82 89 88 88 88 88 88 87 84 84 84 85 85 86 88 90 94 95 95 95 96 96 92 93 93 89 94 94 95 96 96 98
70 72 84 87 92 93 93 91 88 87 86 87 92 91 94 94 95 96 92 87 88 92 92 93 93 92 92 94 95 96 95 88 89 92 93 93 92 94 96 96 98 99 96
70 72 80 85 91 92 91 89 86 86 86 90 93 95 96 96 97 98 97 96 95 96 96 96 95 94 95 95 96 97 98 97 94 95 96 96 93 94 96 99 100 99 99
76 74 84 92 94 92 90 87 86 80 76 87 93 93 91 92 93 88 86 92 97 96 95 89 80 80 80 88 92 90 89 91 97 97 97 97 93 84 89 94 100 99 99
71 74 81 88 91 91 89 88 85 76 76 79 82 79 81 83 85 86 86 88 88 87 87 87 80 86 78 86 90 92 96 97 97 98 98 96 95 94 86 86 83 91 97
71 74 77 82 89 92 90 94 86 81 81 81 81 82 84 89 92 91 91 92 94 93 95 94 92 92 83 85 92 93 95 98 98 98 98 94 92 91 94 82 79 78 74
74 77 82 88 89 90 94 94 89 84 84 85 85 86 88 93 95 97 97 94 94 95 96 96 95 94 81 80 85 90 97 99 99 100 99 98 96 90 93 89 89 89 80
78 82 85 88 92 96 96 95 91 90 90 90 89 90 92 97 97 97 98 94 96 96 98 96 90 91 92 68 72 89 97 96 96 89 82 77 81 64 74 84 90 88 81
78 85 87 92 95 97 96 95 93 93 94 93 94 93 96 97 98 98 100 95 94 97 96 98 100 80 94 62 61 70 73 73 67 67 67 69 72 64 64 86 88 89 87
84 84 84 89 93 96 95 94 95 100 93 91 94 96 95 95 95 96 94 93 92 92 95 96 96 88 84 81 58 64 71 65 68 70 77 78 67 63 61 61 79 78 77
87 86 89 90 94 95 94 96 97 93 89 91 93 93 91 85 87 92 96 99 99 99 98 92 81 65 69 63 60 55 57 65 68 73 77 83 70 61 58 56 54 54 64
87 84 88 93 97 94 91 93 95 96 92 92 94 97 86 86 86 96 99 96 89 76 73 66 64 52 46 62 66 61 62 64 74 77 72 64 59 64 63 52 51 56 64
86 85 89 92 97 94 91 87 92 90 87 88 96 98 99 99 99 96 89 85 77 65 55 50 50 55 53 68 76 72 78 69 68 68 82 61 53 50 52 55 58 64 68
88 84 84 86 85 88 92 92 90 91 95 94 96 96 93 92 75 64 61 57 57 53 49 50 48 55 58 62 65 69 72 80 72 73 72 62 57 72 63 66 71 78 81
88 89 90 91 87 83 88 87 88 91 94 96 93 79 63 65 61 70 80 57 55 62 56 50 55 52 54 55 54 56 57 60 62 76 77 73 82 85 66 71 75 82 86
Wind_Speed
3 2 3 5 7 5 6 3 5 2 2 2 2 2 5 3 4 5 7 6 5 6 7 7 6 6 7 8 8 5 7 5 2 1 3 4 5 6 6 4 5 7 8
5 4 5 3 3 5 5 5 5 4 2 2 1 1 1 2 2 1 4 5 5 6 5 5 5 6 6 6 6 7 3 3 5 3 1 3 3 4 7 5 7 9 5
9 7 6 5 5 5 4 5 4 4 3 2 1 1 2 2 2 1 2 3 5 6 6 7 5 5 5 5 6 6 8 9 3 5 4 1 5 2 1 4 4 6 4
6 5 7 6 6 5 5 5 5 5 4 4 4 2 1 1 2 2 3 4 4 5 5 6 6 7 4 6 7 7 8 4 7 2 5 3 3 4 4 2 2 4 6
10 10 8 7 5 5 5 5 7 6 5 6 5 3 2 1 2 3 5 5 5 5 5 5 6 6 5 6 7 5 6 6 7 5 3 5 2 1 2 9 4 2 4
9 7 6 7 6 5 5 5 7 6 6 6 6 5 4 1 2 2 2 3 3 3 5 6 5 5 5 6 6 6 6 7 7 4 4 4 4 3 5 7 8 6 2
10 9 9 8 6 6 5 5 6 5 5 6 5 4 2 1 1 2 2 2 2 2 5 5 5 4 5 4 4 5 5 6 5 6 5 4 6 3 3 5 5 4 2
7 8 8 7 7 6 6 6 6 5 5 5 5 4 4 1 1 1 1 1 2 2 4 5 5 6 6 4 1 1 2 4 5 6 5 4 5 4 5 4 3 3 4
8 8 7 6 7 6 5 5 5 5 6 6 5 5 5 3 2 3 2 2 3 4 5 5 5 5 6 6 4 3 3 1 2 2 3 3 3 3 3 4 5 5 3
8 7 7 7 5 5 5 6 5 5 4 5 5 3 5 5 4 5 5 5 5 5 6 6 6 6 6 6 6 5 5 5 5 4 5 4 3 3 3 2 2 1 4
9 8 7 6 6 5 5 5 4 4 4 4 3 5 5 5 5 5 5 4 5 5 5 5 6 6 7 7 6 6 6 6 5 6 6 6 4 4 4 3 3 2 1
8 7 7 7 6 5 4 4 3 3 3 2 3 4 5 5 5 5 5 4 5 5 5 5 6 6 7 7 6 6 5 6 6 6 6 5 4 5 4 2 4 3 3
8 6 6 6 6 5 5 4 3 2 2 3 4 4 4 5 5 5 5 5 5 5 6 6 7 7 6 6 6 7 7 9 9 7 6 6 5 5 3 3 3 2 1
8 7 6 6 6 5 5 4 3 2 3 4 4 4 4 5 4 4 5 5 5 6 6 6 5 5 7 7 7 8 8 9 9 8 7 6 7 5 5 4 4 3 3
7 8 7 6 6 5 4 3 2 2 3 4 4 4 4 4 4 5 6 6 6 6 5 6 8 7 8 6 8 9 9 9 8 8 8 10 12 11 8 3 4 3 2
10 8 7 7 6 6 5 4 3 2 3 3 4 4 4 4 5 5 5 6 6 6 6 7 9 7 8 14 14 10 7 8 7 7 7 7 9 10 13 12 11 7 4
10 10 9 8 6 6 6 5 4 3 4 4 4 4 4 5 5 5 5 6 5 6 6 6 7 7 8 14 15 14 7 7 6 5 4 5 4 6 5 9 10 10 10
9 8 7 6 6 5 5 5 4 4 4 4 4 4 4 4 5 5 6 5 5 5 4 5 6 6 7 13 13 13 5 5 5 5 3 3 4 5 4 5 5 5 5
6 6 7 7 6 6 6 6 4 4 4 4 4 4 4 4 4 5 5 5 4 4 4 4 6 6 5 10 10 8 4 4 4 3 3 2 4 7 7 5 5 5 4
7 9 8 7 7 6 6 6 5 5 5 5 5 4 5 4 4 5 5 3 3 4 3 4 4 5 3 7 7 5 3 4 3 3 4 7 5 7 6 3 2 4 3
9 9 9 8 7 7 7 6 6 4 5 5 6 6 6 6 6 4 3 4 5 3 2 2 2 3 3 4 5 6 3 2 1 2 3 3 8 7 7 6 2 3 1
9 7 8 7 7 7 7 7 7 5 6 6 6 6 7 6 5 5 4 3 5 4 4 2 0 2 2 4 3 3 2 1 1 2 2 4 8 7 8 6 8 8 5
7 6 7 6 6 7 6 8 6 7 7 7 7 6 7 6 6 6 5 3 4 4 3 3 2 2 2 2 4 3 3 3 0 2 4 9 9 9 6 7 8 5 3
7 7 7 7 8 8 7 6 7 8 8 7 6 5 6 6 5 3 4 4 4 3 3 3 3 2 2 2 2 2 2 4 3 3 2 5 6 5 3 3 4 3 2
8 10 10 9 9 9 9 7 7 7 6 5 5 5 4 5 4 4 4 4 4 5 4 4 3 3 3 3 5 4 3 3 5 1 1 2 2 2 3 3 3 3 3
7 8 9 10 10 10 10 10 9 9 7 6 5 5 4 4 4 4 3 6 6 8 7 6 5 3 5 5 6 6 7 7 6 1 1 1 1 2 3 3 3 2 3
Wind_Direction
275 60 99 118 110 75 88 92 125 57 143 149 174 198 221 199 204 216 229 228 214 217 201 216 210 190 206 219 216 212 224 244 179 94 279 259 224 236 237 218 223 226 218
184 147 123 123 99 120 116 97 88 70 77 117 183 227 215 227 247 217 217 218 220 219 226 231 234 208 214 217 211 199 216 231 173 197 335 304 307 262 236 214 224 232 210
200 170 154 149 131 121 111 93 75 61 50 54 74 35 10 360 326 299 287 257 232 229 221 237 229 231 210 224 220 204 208 240 180 199 201 244 229 315 299 254 248 236 208
182 173 169 160 153 138 117 103 90 79 45 44 62 61 100 263 303 323 315 312 314 286 254 232 224 224 210 217 225 218 222 197 230 174 234 219 168 215 285 278 277 226 225
179 181 181 161 149 135 123 111 102 82 77 71 80 80 63 343 322 323 316 319 318 315 317 286 250 232 212 227 223 210 206 201 233 200 156 219 162 75 252 281 282 339 254
179 169 164 143 129 112 100 94 91 70 63 72 72 85 87 351 345 325 329 327 331 355 9 342 314 267 243 223 227 221 213 214 222 207 195 192 187 198 213 253 267 262 280
164 160 156 149 130 116 107 105 100 77 58 60 56 55 59 42 310 306 300 341 337 346 343 341 347 336 306 259 228 215 211 213 215 216 216 212 235 201 188 228 253 245 239
156 157 154 142 134 124 111 106 101 87 56 44 25 12 6 358 19 67 71 14 348 315 336 339 349 352 352 348 321 228 236 219 215 192 211 201 215 179 195 212 194 260 246
160 156 143 138 132 123 115 116 102 79 52 36 20 13 358 8 70 55 55 54 16 355 0 358 358 4 9 5 357 42 51 331 265 217 215 216 248 210 209 210 209 227 278
150 143 146 138 126 121 113 93 83 75 51 40 23 23 15 44 47 47 46 58 35 19 12 11 15 17 17 14 27 37 18 45 33 25 22 15 19 18 12 5 330 298 271
160 154 145 133 128 116 109 104 85 72 47 40 28 37 27 41 50 53 41 43 55 30 28 23 29 29 26 18 41 49 42 59 47 31 56 50 35 47 43 38 36 34 25
158 148 143 140 143 139 123 111 94 75 33 41 66 54 48 44 48 45 38 37 57 40 37 35 43 37 32 27 34 47 47 59 55 39 48 39 41 55 44 46 51 33 29
142 139 142 161 162 161 154 152 140 111 62 84 98 72 63 56 49 44 37 42 54 48 42 44 45 40 37 40 41 46 43 51 50 40 41 26 36 44 38 38 57 58 56
163 159 160 170 169 166 157 155 154 144 121 109 108 97 80 74 60 49 44 44 47 52 47 42 48 54 49 45 48 51 52 52 52 49 44 34 40 38 42 53 43 48 59
181 184 176 172 169 165 162 147 143 138 149 138 139 133 122 107 102 78 66 62 54 55 56 58 61 61 61 61 65 71 72 69 58 44 36 38 41 57 64 57 36 43 51
199 186 170 166 175 176 174 166 162 147 135 122 121 115 108 98 92 89 84 75 65 60 59 62 73 61 64 70 77 75 74 65 56 48 30 23 32 27 41 50 56 79 63
191 180 177 173 171 174 167 167 149 131 118 113 105 104 104 98 93 91 90 82 70 69 54 49 57 59 68 70 72 78 71 74 67 64 49 43 19 37 27 30 37 32 33
176 169 161 153 153 153 152 145 154 137 124 112 104 102 108 110 108 101 98 83 67 59 56 54 48 45 59 68 77 82 73 74 65 55 51 51 343 329 56 23 24 21 17
157 155 147 143 145 157 155 146 151 146 135 132 129 115 124 124 116 111 96 81 78 70 56 44 45 41 8 77 81 82 64 59 38 37 14 69 2 5 48 41 16 6 3
139 142 141 138 149 160 150 148 158 163 159 147 125 129 136 132 121 112 105 91 79 73 72 55 29 39 4 71 73 78 71 57 35 19 14 4 10 14 20 79 28 353 313
130 130 143 159 162 153 151 157 160 176 153 131 140 145 136 129 118 111 112 118 125 112 89 83 4 21 9 353 55 76 71 61 20 18 357 341 337 346 345 10 338 260 276
135 144 149 158 157 161 162 170 174 160 155 151 154 151 141 134 138 130 142 158 139 169 189 208 346 304 323 354 344 21 51 110 32 340 317 296 310 328 335 350 329 333 22
146 156 157 154 167 178 180 176 181 158 173 165 164 153 156 161 162 154 184 172 189 193 183 228 221 261 297 317 328 0 4 348 180 259 285 333 328 321 344 327 334 21 0
167 163 164 175 187 191 193 186 163 168 179 183 161 161 170 177 176 178 187 191 201 189 203 226 233 234 252 259 278 282 314 307 308 297 313 329 338 343 353 357 351 336 313
175 174 183 192 199 189 195 187 175 168 174 179 177 181 181 188 194 205 191 202 216 180 190 215 209 197 241 238 223 232 236 238 252 304 227 353 351 343 332 321 313 316 314
177 193 197 194 196 190 192 186 180 174 172 184 192 197 185 184 189 192 219 227 214 204 216 204 184 223 233 258 266 284 291 294 300 44 266 277 246 260 292 296 295 293 301